Вернуться в каталог

FENGYUN 1C DEB

АктивенSSO
NORAD 30037·DEBRIS·🇨🇳 China

Запущен May 10, 1999 с Taiyuan Satellite Launch Center

Loading…

Ближайшие Пролёты (ближайшие 24 часа)

TLE

СвежийSource: Space-Track

Эпоха: Sep 14, 2026, 09:45 UTC

1 30037U 99025NN  26257.40635228  .00000356  00000-0  12195-3 0  9995
2 30037  98.4163 230.5571 0171930 314.5489 202.0200 14.34431161 27399

Отслеживайте FENGYUN 1C DEB в реальном времени с AllMySat

Download on the App Store